| time (UTC) | temp C | wind direction | speed KPH | gust KPH | rain 1hr cm | rain 24hr cm | rain mn cm | humidity % | barometer mb |
| 20260505163024 | 25 | 174 | 6.4 | 19.3 | 0.00 | 0.00 | 0.00 | 47 | 1010.1 |
| 20260505161521 | 25 | 129 | 3.2 | 17.7 | 0.00 | 0.00 | 0.00 | 43 | 1010.2 |
| 20260505153020 | 24 | 208 | 1.6 | 8.0 | 0.00 | 0.00 | 0.00 | 46 | 1010.4 |
| 20260505151511 | 24 | 163 | 0.0 | 12.9 | 0.00 | 0.00 | 0.00 | 44 | 1010.2 |
| 20260505124527 | 16 | 148 | 1.6 | 8.0 | 0.00 | 0.00 | 0.00 | 66 | 1011.3 |
| 20260505123044 | 15 | 157 | 0.0 | 4.8 | 0.00 | 0.00 | 0.00 | 70 | 1011.4 |
| 20260505121529 | 15 | 161 | 0.0 | 8.0 | 0.00 | 0.00 | 0.00 | 69 | 1011.3 |
| 20260505120122 | 14 | 152 | 1.6 | 9.7 | 0.00 | 0.00 | 0.00 | 70 | 1011.2 |
| 20260505114600 | 14 | 171 | 3.2 | 11.3 | 0.00 | 0.00 | 0.00 | 70 | 1011.0 |
| 20260505113053 | 13 | 160 | 0.0 | 9.7 | 0.00 | 0.00 | 0.00 | 71 | 1011.0 |
| 20260505111554 | 13 | 124 | 3.2 | 14.5 | 0.00 | 0.00 | 0.00 | 71 | 1010.9 |
| 20260505101538 | 13 | 148 | 0.0 | 8.0 | 0.00 | 0.00 | 0.00 | 72 | 1010.1 |
| 20260505100033 | 13 | 146 | 1.6 | 8.0 | 0.00 | 0.00 | 0.00 | 71 | 1010.1 |
| 20260505094531 | 13 | 174 | 1.6 | 9.7 | 0.00 | 0.00 | 0.00 | 71 | 1010.0 |
| 20260505093034 | 13 | 153 | 0.0 | 8.0 | 0.00 | 0.00 | 0.00 | 71 | 1010.0 |
| 20260505091533 | 13 | 174 | 1.6 | 11.3 | 0.00 | 0.00 | 0.00 | 71 | 1009.9 |
| 20260505090042 | 13 | 139 | 0.0 | 8.0 | 0.00 | 0.00 | 0.00 | 71 | 1009.8 |
| 20260505084525 | 13 | 146 | 0.0 | 4.8 | 0.00 | 0.00 | 0.00 | 71 | 1009.9 |
| 20260505083121 | 13 | 140 | 0.0 | 0.0 | 0.00 | 0.00 | 0.00 | 70 | 1009.9 |
| 20260505081524 | 14 | 140 | 0.0 | 1.6 | 0.00 | 0.00 | 0.00 | 69 | 1009.9 |
| 20260505080041 | 14 | 138 | 0.0 | 4.8 | 0.00 | 0.00 | 0.00 | 69 | 1009.9 |
| 20260505074515 | 14 | 147 | 0.0 | 1.6 | 0.00 | 0.00 | 0.00 | 69 | 1009.7 |
| 20260505073017 | 14 | 153 | 0.0 | 3.2 | 0.00 | 0.00 | 0.00 | 68 | 1009.6 |
| 20260505071514 | 15 | 153 | 0.0 | 3.2 | 0.00 | 0.00 | 0.00 | 68 | 1009.6 |
| 20260505070018 | 15 | 151 | 0.0 | 4.8 | 0.00 | 0.00 | 0.00 | 67 | 1009.6 |
| 20260505064508 | 15 | 167 | 0.0 | 8.0 | 0.00 | 0.00 | 0.00 | 66 | 1009.7 |
| 20260505063007 | 15 | 156 | 0.0 | 4.8 | 0.00 | 0.00 | 0.00 | 65 | 1009.8 |
| 20260505061509 | 15 | 153 | 0.0 | 8.0 | 0.00 | 0.00 | 0.00 | 64 | 1009.7 |
| 20260505060002 | 16 | 162 | 1.6 | 8.0 | 0.00 | 0.00 | 0.00 | 64 | 1009.7 |
| 20260505054601 | 16 | 159 | 0.0 | 8.0 | 0.00 | 0.00 | 0.00 | 63 | 1009.8 |
| 20260505053106 | 16 | 144 | 3.2 | 14.5 | 0.00 | 0.00 | 0.00 | 62 | 1009.9 |
| 20260505051556 | 16 | 150 | 3.2 | 8.0 | 0.00 | 0.00 | 0.00 | 61 | 1009.8 |
| 20260505050124 | 16 | 140 | 1.6 | 9.7 | 0.00 | 0.00 | 0.00 | 60 | 1009.9 |
| 20260505041603 | 16 | 161 | 1.6 | 9.7 | 0.00 | 0.00 | 0.00 | 60 | 1009.7 |
| 20260505040057 | 16 | 182 | 1.6 | 6.4 | 0.00 | 0.00 | 0.00 | 60 | 1009.7 |
| 20260505034550 | 16 | 167 | 0.0 | 12.9 | 0.00 | 0.00 | 0.00 | 60 | 1009.7 |
| 20260505033050 | 15 | 134 | 1.6 | 6.4 | 0.00 | 0.00 | 0.00 | 61 | 1009.6 |
| 20260505031549 | 15 | 130 | 0.0 | 3.2 | 0.00 | 0.00 | 0.00 | 59 | 1009.7 |
| 20260505030047 | 15 | 139 | 0.0 | 0.0 | 0.00 | 0.00 | 0.00 | 59 | 1009.8 |
| 20260505024549 | 15 | 139 | 0.0 | 1.6 | 0.00 | 0.00 | 0.00 | 59 | 1009.8 |
| 20260505023050 | 15 | 139 | 0.0 | 0.0 | 0.00 | 0.00 | 0.00 | 57 | 1009.9 |
| 20260505020045 | 16 | 139 | 0.0 | 0.0 | 0.00 | 0.00 | 0.00 | 53 | 1009.7 |
| 20260505014601 | 17 | 139 | 0.0 | 0.0 | 0.00 | 0.00 | 0.00 | 51 | 1009.8 |
| 20260505013043 | 17 | 139 | 0.0 | 0.0 | 0.00 | 0.00 | 0.00 | 50 | 1009.7 |
| 20260505011541 | 18 | 141 | 0.0 | 0.0 | 0.00 | 0.00 | 0.00 | 48 | 1009.4 |
| 20260505010040 | 18 | 141 | 0.0 | 4.8 | 0.00 | 0.00 | 0.00 | 47 | 1009.3 |
| 20260505004544 | 19 | 143 | 0.0 | 8.0 | 0.00 | 0.00 | 0.00 | 46 | 1009.2 |
| 20260505003040 | 19 | 149 | 1.6 | 8.0 | 0.00 | 0.00 | 0.00 | 45 | 1009.2 |
| 20260505001537 | 20 | 121 | 3.2 | 9.7 | 0.00 | 0.00 | 0.00 | 44 | 1009.0 |
| 20260505000040 | 20 | 140 | 0.0 | 8.0 | 0.00 | 0.00 | 0.00 | 43 | 1009.0 |
| 20260504234546 | 20 | 141 | 3.2 | 12.9 | 0.00 | 0.00 | 0.00 | 42 | 1008.9 |
| 20260504233035 | 21 | 137 | 6.4 | 19.3 | 0.00 | 0.00 | 0.00 | 40 | 1008.7 |
| 20260504231531 | 21 | 167 | 6.4 | 16.1 | 0.00 | 0.00 | 0.00 | 39 | 1008.8 |
| 20260504230030 | 21 | 144 | 3.2 | 14.5 | 0.00 | 0.00 | 0.00 | 39 | 1008.8 |
| 20260504224530 | 21 | 139 | 3.2 | 17.7 | 0.00 | 0.00 | 0.00 | 39 | 1008.9 |
| 20260504223029 | 22 | 169 | 6.4 | 16.1 | 0.00 | 0.00 | 0.00 | 39 | 1008.8 |
| 20260504221558 | 22 | 136 | 8.0 | 19.3 | 0.00 | 0.00 | 0.00 | 37 | 1008.7 |
| 20260504220100 | 22 | 162 | 1.6 | 16.1 | 0.00 | 0.00 | 0.00 | 38 | 1008.8 |
| 20260504214600 | 22 | 193 | 6.4 | 22.5 | 0.00 | 0.00 | 0.00 | 37 | 1008.9 |
| 20260504213125 | 22 | 186 | 6.4 | 24.1 | 0.00 | 0.00 | 0.00 | 38 | 1008.8 |
| 20260504211556 | 22 | 121 | 6.4 | 17.7 | 0.00 | 0.00 | 0.00 | 39 | 1008.9 |
| 20260504210052 | 22 | 126 | 6.4 | 22.5 | 0.00 | 0.00 | 0.00 | 38 | 1008.9 |
| 20260504204554 | 22 | 138 | 9.7 | 19.3 | 0.00 | 0.00 | 0.00 | 38 | 1008.9 |
| 20260504203059 | 22 | 153 | 6.4 | 20.9 | 0.00 | 0.00 | 0.00 | 39 | 1009.1 |
| 20260504201545 | 22 | 113 | 6.4 | 19.3 | 0.00 | 0.00 | 0.00 | 38 | 1009.4 |
| 20260504201543 | 22 | 123 | 6.4 | 19.3 | 0.00 | 0.00 | 0.00 | 38 | 1009.4 |
| 20260504200044 | 22 | 282 | 0.0 | 14.5 | 0.00 | 0.00 | 0.00 | 39 | 1009.7 |
| 20260504194555 | 22 | 202 | 1.6 | 14.5 | 0.00 | 0.00 | 0.00 | 39 | 1009.9 |
| 20260504193043 | 22 | 5 | 1.6 | 12.9 | 0.00 | 0.00 | 0.00 | 40 | 1010.2 |
| 20260504191533 | 22 | 161 | 4.8 | 12.9 | 0.00 | 0.00 | 0.00 | 41 | 1010.4 |
| 20260504190128 | 21 | 105 | 4.8 | 16.1 | 0.00 | 0.00 | 0.00 | 41 | 1010.6 |
| 20260504184526 | 21 | 148 | 8.0 | 25.7 | 0.00 | 0.00 | 0.00 | 41 | 1010.9 |
| 20260504183025 | 20 | 139 | 3.2 | 24.1 | 0.00 | 0.00 | 0.00 | 43 | 1011.2 |
| 20260504181522 | 21 | 177 | 6.4 | 22.5 | 0.00 | 0.00 | 0.00 | 40 | 1011.4 |
| 20260504180018 | 20 | 173 | 4.8 | 16.1 | 0.00 | 0.00 | 0.00 | 43 | 1011.5 |
| 20260504174517 | 20 | 170 | 4.8 | 14.5 | 0.00 | 0.00 | 0.00 | 42 | 1011.6 |
| 20260504173023 | 20 | 130 | 0.0 | 11.3 | 0.00 | 0.00 | 0.00 | 41 | 1011.7 |
| 20260504171518 | 20 | 171 | 6.4 | 16.1 | 0.00 | 0.00 | 0.00 | 41 | 1012.0 |